Weather History for Port Hedland, WE

Change the Weather History Date:

Monday, February 25, 2013

  Actual Average Record
Temperature  
Mean Temperature 81 °F -  
Max Temperature 85 °F 98 °F 107 °F (2005)
Min Temperature 77 °F 76 °F 70 °F (2014)
Cooling Degree Days 16    
Growing Degree Days 31 (Base 50)    
Moisture  
Dew Point 74 °F    
Average Humidity 81    
Maximum Humidity 94    
Minimum Humidity 62    
Precipitation  
Precipitation 0.28 in 0.07 in - ()
Sea Level Pressure  
Sea Level Pressure 29.38 in    
Wind  
Wind Speed 28 mph ()    
Max Wind Speed 41 mph    
Max Gust Speed 54 mph    
Visibility 6.4 miles    
Events Rain    
Averages and records for this station are not official NWS values.
T = Trace of Precipitation, MM = Missing Value Source: Averaged Metar Reports

Daily Weather History Graph

Daily Weather History Graph

Search for Another Location

Airport:

Trip Planner

Search our weather history database for the weather conditions in past years. The results will help you decide how hot, cold, wet, or windy it might be!

Date:

Astronomy

Feb. 25, 2013 Rise Set
Actual Time 6:01 AM WST 6:35 PM WST
Civil Twilight 5:38 AM WST 6:57 PM WST
Nautical Twilight 5:12 AM WST 7:24 PM WST
Astronomical Twilight 4:45 AM WST 7:50 PM WST
Moon 6:01 PM WST (2/25) 5:13 AM WST (2/25)
Length of Visible Light 13h 19m
Length of Day
12h 34m
Waxing Gibbous, 99% of the Moon is Illuminated
Feb 25
Waxing Gibbous
Feb 26
Full
Mar 5
Last Quarter
Mar 12
New
Mar 20
First Quarter

Hourly Weather History & Observations

Time (WST) Temp. Heat Index Dew Point Humidity Pressure Visibility Wind Dir Wind Speed Gust Speed Precip Events Conditions
12:00 AM 82 °F - 73 °F 68% 29.47 in - ESE 29.9 mph - -  
12:00 AM 82.4 °F 88.2 °F 73.4 °F 74% 29.44 in 6.2 mi ESE 29.9 mph 41.4 mph N/A   Overcast
12:30 AM 82.4 °F 88.2 °F 73.4 °F 74% 29.44 in 6.2 mi ESE 28.8 mph - N/A   Overcast
12:53 AM 82.4 °F 88.2 °F 73.4 °F 74% 29.44 in 6.2 mi ESE 26.5 mph 38.0 mph N/A   Overcast
1:00 AM 82.4 °F 88.2 °F 73.4 °F 74% 29.44 in 6.2 mi ESE 27.6 mph 41.4 mph N/A   Overcast
1:37 AM 80.6 °F 85.4 °F 73.4 °F 79% 29.44 in 6.2 mi ESE 27.6 mph 39.1 mph N/A   Overcast
2:00 AM 81 °F - 73 °F 71% 29.45 in - ESE 25.3 mph - -  
2:00 AM 80.6 °F 85.4 °F 73.4 °F 79% 29.44 in 6.2 mi ESE 25.3 mph - N/A   Overcast
2:18 AM 80.6 °F 85.4 °F 73.4 °F 79% 29.44 in 6.2 mi ESE 25.3 mph 36.8 mph N/A   Mostly Cloudy
2:30 AM 78.8 °F - 75.2 °F 89% 29.44 in 6.2 mi ESE 26.5 mph - N/A   Drizzle
3:00 AM 78 °F - 75 °F 88% 29.43 in - ESE 24.2 mph - -   Overcast
3:00 AM 77.0 °F - 75.2 °F 94% 29.42 in 6.2 mi ESE 24.2 mph - N/A Rain Light Rain
3:22 AM 78.8 °F - 75.2 °F 89% 29.42 in 6.2 mi SE 24.2 mph 35.7 mph N/A   Drizzle
3:30 AM 78.8 °F - 75.2 °F 89% 29.42 in 6.2 mi SE 25.3 mph - N/A   Drizzle
3:47 AM 78.8 °F - 75.2 °F 89% 29.42 in 6.2 mi ESE 26.5 mph 41.4 mph N/A   Drizzle
4:00 AM 78.8 °F - 75.2 °F 89% 29.42 in 6.2 mi ESE 25.3 mph - N/A   Drizzle
4:09 AM 78.8 °F - 75.2 °F 89% 29.42 in 6.2 mi ESE 26.5 mph 39.1 mph N/A   Drizzle
4:30 AM 78.8 °F - 75.2 °F 89% 29.42 in 6.2 mi ESE 28.8 mph 40.3 mph N/A   Mostly Cloudy
5:00 AM 78 °F - 74 °F 85% 29.43 in - SE 28.8 mph - -  
5:00 AM 78.8 °F - 75.2 °F 89% 29.42 in 6.2 mi SE 28.8 mph - N/A Rain Light Rain Showers
5:16 AM 77.0 °F - 75.2 °F 94% 29.42 in 6.2 mi ESE 28.8 mph 40.3 mph N/A Rain Light Rain Showers
5:33 AM 77.0 °F - 75.2 °F 94% 29.42 in 6.2 mi SE 27.6 mph 39.1 mph N/A Rain Light Rain Showers
6:00 AM 78 °F - 74 °F 85% 29.43 in 12 mi ESE 33.4 mph - - Rain Light Rain
6:00 AM 78.8 °F - 75.2 °F 89% 29.42 in 6.2 mi ESE 33.4 mph 46.0 mph N/A Rain Light Rain
6:23 AM 77.0 °F - 75.2 °F 94% 29.42 in 3.1 mi ESE 33.4 mph 47.2 mph N/A Rain Light Rain
6:30 AM 77.0 °F - 75.2 °F 94% 29.42 in 3.1 mi ESE 31.1 mph - N/A Rain Light Rain
6:46 AM 78.8 °F - 75.2 °F 89% 29.42 in 6.2 mi SE 25.3 mph - N/A Rain Light Rain
7:00 AM 78.8 °F - 73.4 °F 83% 29.42 in 6.2 mi SE 26.5 mph - N/A   Overcast
7:29 AM 78.8 °F - 75.2 °F 89% 29.44 in 6.2 mi SE 23.0 mph 35.7 mph N/A   Overcast
8:00 AM 80 °F - 74 °F 77% 29.43 in - SE 28.8 mph - -  
8:00 AM 80.6 °F 85.4 °F 73.4 °F 79% 29.42 in 6.2 mi SE 28.8 mph - N/A   Overcast
8:30 AM 80.6 °F 85.4 °F 73.4 °F 79% 29.42 in 6.2 mi ESE 29.9 mph - N/A   Overcast
8:36 AM 80.6 °F 86.2 °F 75.2 °F 84% 29.42 in 6.2 mi ESE 28.8 mph 41.4 mph N/A Rain Light Rain Showers
9:00 AM 80 °F - 75 °F 81% 29.43 in 12 mi SE 31.1 mph - - Rain Light Rain
9:00 AM 80.6 °F 86.2 °F 75.2 °F 84% 29.42 in 6.2 mi SE 31.1 mph 43.7 mph N/A Rain Light Rain
9:30 AM 80.6 °F 85.4 °F 73.4 °F 79% 29.42 in 6.2 mi ESE 33.4 mph 47.2 mph N/A Rain Light Rain
10:00 AM 82.4 °F 88.2 °F 73.4 °F 74% 29.42 in 6.2 mi ESE 34.5 mph 47.2 mph N/A Rain Light Rain
10:30 AM 82.4 °F 88.2 °F 73.4 °F 74% 29.42 in 6.2 mi SE 33.4 mph 46.0 mph N/A   Mostly Cloudy
11:00 AM 83 °F - 74 °F 68% 29.40 in - SE 36.8 mph - -  
11:00 AM 84.2 °F 90.9 °F 73.4 °F 70% 29.39 in 6.2 mi SE 36.8 mph 49.5 mph N/A Rain Light Rain
11:30 AM 82.4 °F 88.2 °F 73.4 °F 74% 29.39 in 6.2 mi SE 35.7 mph 49.5 mph N/A Rain Light Rain
12:00 PM 85 °F - 74 °F 62% 29.39 in 12 mi ESE 36.8 mph - - Rain Light Rain
12:00 PM 84.2 °F 90.9 °F 73.4 °F 70% 29.39 in 6.2 mi ESE 36.8 mph 48.3 mph N/A Rain Light Rain
12:35 PM 84.2 °F 90.9 °F 73.4 °F 70% 29.36 in 6.2 mi SE 38.0 mph 49.5 mph N/A Rain Light Rain
1:00 PM 84.2 °F 90.9 °F 73.4 °F 70% 29.36 in 6.2 mi SE 35.7 mph 50.6 mph N/A Rain Light Rain
1:12 PM 82.4 °F 89.5 °F 75.2 °F 79% 29.36 in 6.2 mi SE 33.4 mph 44.9 mph N/A Rain Light Rain
1:30 PM 78.8 °F - 75.2 °F 89% 29.36 in 6.2 mi SE 33.4 mph - N/A Rain Light Rain
1:43 PM 78.8 °F - 77.0 °F 94% 29.36 in 6.2 mi SE 29.9 mph 41.4 mph N/A Rain Light Rain
2:00 PM 80 °F - 76 °F 83% 29.34 in - SE 31.1 mph - -  
2:00 PM 80.6 °F 86.2 °F 75.2 °F 84% 29.33 in 6.2 mi SE 31.1 mph - N/A Rain Light Rain
2:06 PM 80.6 °F 86.2 °F 75.2 °F 84% 29.33 in 6.2 mi SE 31.1 mph 46.0 mph N/A   Mostly Cloudy
2:30 PM 82.4 °F 89.5 °F 75.2 °F 79% 29.33 in 6.2 mi SE 34.5 mph 46.0 mph N/A   Mostly Cloudy
3:00 PM 82 °F - 75 °F 73% 29.33 in 12 mi SE 33.4 mph - -   Partly Cloudy
3:00 PM 82.4 °F 89.5 °F 75.2 °F 79% 29.33 in 6.2 mi SE 33.4 mph 47.2 mph N/A   Mostly Cloudy
3:30 PM 84.2 °F 92.3 °F 75.2 °F 74% 29.30 in 6.2 mi SSE 33.4 mph - N/A   Mostly Cloudy
3:47 PM 84.2 °F 92.3 °F 75.2 °F 74% 29.30 in 6.2 mi SE 32.2 mph 43.7 mph N/A   Mostly Cloudy
4:00 PM 84.2 °F 92.3 °F 75.2 °F 74% 29.33 in 6.2 mi SE 32.2 mph 43.7 mph N/A   Mostly Cloudy
4:30 PM 84.2 °F 90.9 °F 73.4 °F 70% 29.33 in 6.2 mi SE 28.8 mph 41.4 mph N/A   Light Drizzle
5:00 PM 83 °F - 74 °F 68% 29.32 in - SE 33.4 mph - -  
5:00 PM 84.2 °F 90.9 °F 73.4 °F 70% 29.33 in 6.2 mi SE 33.4 mph 44.9 mph N/A   Overcast
5:30 PM 82.4 °F 88.2 °F 73.4 °F 74% 29.33 in 6.2 mi SE 34.5 mph 48.3 mph N/A   Mostly Cloudy
6:00 PM 82 °F - 74 °F 71% 29.34 in - SE 31.1 mph - -   Overcast
6:00 PM 82.4 °F 88.2 °F 73.4 °F 74% 29.33 in 6.2 mi SE 31.1 mph 42.6 mph N/A Rain Light Rain
6:30 PM 78.8 °F - 75.2 °F 89% 29.33 in 6.2 mi SE 26.5 mph - N/A Rain Light Rain
6:44 PM 80.6 °F 86.2 °F 75.2 °F 84% 29.33 in 6.2 mi SE 27.6 mph 39.1 mph N/A Rain Light Rain Showers
7:00 PM 80.6 °F 86.2 °F 75.2 °F 84% 29.33 in 6.2 mi SE 27.6 mph - N/A   Scattered Clouds
7:14 PM 80.6 °F 86.2 °F 75.2 °F 84% 29.33 in 6.2 mi SSE 29.9 mph 41.4 mph N/A Rain Light Rain Showers
7:31 PM 80.6 °F 86.2 °F 75.2 °F 84% 29.33 in 6.2 mi SSE 31.1 mph 42.6 mph N/A   Mostly Cloudy
8:00 PM 79 °F - 75 °F 85% 29.34 in - SSE 31.1 mph - -  
8:00 PM 78.8 °F - 75.2 °F 89% 29.33 in 6.2 mi SSE 31.1 mph - N/A Rain Light Rain Showers
8:30 PM 78.8 °F - 75.2 °F 89% 29.33 in 6.2 mi SSE 31.1 mph - N/A   Overcast
9:00 PM 79 °F - 75 °F 83% 29.34 in - SSE 31.1 mph - -   Overcast
9:00 PM 78.8 °F - 75.2 °F 89% 29.33 in 6.2 mi SSE 31.1 mph - N/A Rain Light Rain Showers
9:13 PM 78.8 °F - 75.2 °F 89% 29.33 in 6.2 mi SSE 32.2 mph 43.7 mph N/A Rain Light Rain Showers
9:30 PM 78.8 °F - 73.4 °F 83% 29.33 in 6.2 mi SSE 36.8 mph 48.3 mph N/A Rain Light Rain Showers
10:01 PM 77.0 °F - 73.4 °F 89% 29.33 in 6.2 mi SSE 38.0 mph 49.5 mph N/A Rain Light Rain Showers
10:34 PM 78.8 °F - 73.4 °F 83% 29.30 in 6.2 mi SSE 39.1 mph 50.6 mph N/A   Drizzle
11:00 PM 77 °F - 73 °F 85% 29.31 in - SSE 36.8 mph - -  
11:00 PM 77.0 °F - 73.4 °F 89% 29.30 in 6.2 mi SSE 36.8 mph - N/A Rain Light Rain
11:18 PM 78.8 °F - 73.4 °F 83% 29.30 in 6.2 mi SSE 38.0 mph 49.5 mph N/A Rain Light Rain Showers
11:30 PM 78.8 °F - 71.6 °F 78% 29.30 in 6.2 mi SSE 41.4 mph 54.1 mph N/A Rain Light Rain Showers